Location: F?ge?el
(45.8833°N, 22.5833°E)
Time: 06:25:26
(UTC+00:00)

Cosmos 1092 Rocket - Pass Details

Date: 17 November 2025
Orbit: 953 x 994 km, 82.9° (Epoch: 04 December)

Event Time Altitude Azimuth Distance (km) Brightness Sun altitude
Rises 17:44:15 0° 350° (N) 3,692 7.2 -29.1°
Reaches altitude 10° 17:46:48 10° 348° (NNW) 2,734 6.5 -29.5°
Maximum altitude 17:53:02 75° 265° (W) 1,006 4.0 -30.6°
Enters shadow 17:54:58 46° 192° (SSW) 1,278 4.6 -30.9°
